Location: Ch�risy
(50.2331°N, 2.9131°E)
Time: 00:00:05
(UTC+00:00)

Meteor 2-5 Rocket - Pass Details

Date: 17 January 2021
Orbit: 833 x 911 km, 81.2° (Epoch: 28 February)

Event Time Altitude Azimuth Distance (km) Brightness Sun altitude
Rises 17:23:10 0° 177° (S) 3,409 7.1 -10.3°
Reaches altitude 10° 17:25:37 10° 173° (S) 2,467 6.3 -10.6°
Maximum altitude 17:31:04 57° 96° (E) 986 3.8 -11.5°
Drops below altitude 10° 17:36:29 10° 19° (NNE) 2,458 5.8 -12.3°
Sets 17:38:56 0° 16° (NNE) 3,395 6.5 -12.6°
